FW5890 Weather Reports


time (UTC)temp
C
wind
direction
speed
KPH
gust
KPH
rain 1hr
cm
rain 24hr
cm
rain mn
cm
humidity
%
barometer
mb
20260506111012 1 360 0.0 1.6 0.00 0.00 0.00 75 1015.6
20260506110549 1 360 0.0 3.2 0.00 0.00 0.00 75 1015.6
20260506110027 1 360 0.0 1.6 0.00 0.00 0.00 75 1015.8
20260506105549 1 360 0.0 1.6 0.00 0.00 0.00 75 1015.9
20260506105105 1 360 0.0 4.8 0.00 0.00 0.00 75 1016.0
20260506104516 1 360 0.0 4.8 0.00 0.00 0.00 75 1016.0
20260506104052 1 360 1.6 4.8 0.00 0.00 0.00 76 1016.0
20260506103502 1 360 0.0 6.4 0.00 0.00 0.00 76 1016.0
20260506103023 1 360 0.0 6.4 0.00 0.00 0.00 76 1016.0
20260506102544 0 360 1.6 6.4 0.00 0.00 0.00 76 1015.9
20260506102016 0 360 0.0 3.2 0.00 0.00 0.00 75 1015.8
20260506101537 0 360 0.0 3.2 0.00 0.00 0.00 75 1015.6
20260506101055 0 360 0.0 0.0 0.00 0.00 0.00 75 1015.6
20260506100506 0 360 0.0 1.6 0.00 0.00 0.00 75 1015.5
20260506100026 0 360 0.0 3.2 0.00 0.00 0.00 75 1015.5
20260506095546 0 360 0.0 3.2 0.00 0.00 0.00 75 1015.5
20260506095106 0 360 0.0 3.2 0.00 0.00 0.00 76 1015.5
20260506094521 0 360 0.0 0.0 0.00 0.00 0.00 75 1015.5
20260506094059 0 360 0.0 1.6 0.00 0.00 0.00 75 1015.5
20260506093511 0 360 0.0 1.6 0.00 0.00 0.00 75 1015.4
20260506093052 0 360 0.0 1.6 0.00 0.00 0.00 75 1015.4
20260506092701 0 360 0.0 0.0 0.00 0.00 0.00 74 1015.3
20260506092003 0 360 0.0 1.6 0.00 0.00 0.00 74 1015.3
20260506091546 0 360 0.0 1.6 0.00 0.00 0.00 74 1015.4
20260506091102 0 360 0.0 0.0 0.00 0.00 0.00 73 1015.4
20260506090536 0 360 0.0 0.0 0.00 0.00 0.00 72 1015.5
20260506090001 0 360 0.0 0.0 0.00 0.00 0.00 72 1015.5
20260506085545 0 360 0.0 0.0 0.00 0.00 0.00 71 1015.5
20260506085004 0 360 0.0 0.0 0.00 0.00 0.00 71 1015.3
20260506084524 0 360 0.0 0.0 0.00 0.00 0.00 71 1015.2
20260506084045 0 360 0.0 0.0 0.00 0.00 0.00 71 1015.1
20260506083605 0 360 0.0 0.0 0.00 0.00 0.00 71 1015.0
20260506083026 1 360 0.0 0.0 0.00 0.00 0.00 72 1015.0
20260506082515 1 360 0.0 1.6 0.00 0.00 0.00 71 1015.0
20260506082054 1 360 0.0 1.6 0.00 0.00 0.00 70 1015.0
20260506081507 1 360 0.0 1.6 0.00 0.00 0.00 70 1015.0
20260506081031 1 360 0.0 3.2 0.00 0.00 0.00 70 1015.1
20260506080502 1 360 0.0 3.2 0.00 0.00 0.00 69 1015.2
20260506073020 1 360 0.0 1.6 0.00 0.00 0.00 67 1014.8
20260506072538 1 360 0.0 1.6 0.00 0.00 0.00 67 1014.8
20260506072058 1 360 0.0 3.2 0.00 0.00 0.00 66 1014.7
20260506071534 1 360 0.0 3.2 0.00 0.00 0.00 66 1014.7
20260506071007 1 360 0.0 3.2 0.00 0.00 0.00 66 1014.7
20260506070553 2 360 0.0 3.2 0.00 0.00 0.00 66 1014.6
20260506070158 2 360 0.0 3.2 0.00 0.00 0.00 66 1014.7
20260506062016 2 360 0.0 4.8 0.00 0.00 0.00 62 1014.6
20260506061555 2 360 0.0 4.8 0.00 0.00 0.00 62 1014.6
20260506061010 2 360 0.0 4.8 0.00 0.00 0.00 62 1014.7
20260506060530 3 360 0.0 4.8 0.00 0.00 0.00 62 1014.7
20260506060105 3 360 0.0 4.8 0.00 0.00 0.00 62 1014.7
20260506051029 3 360 0.0 3.2 0.00 0.00 0.00 62 1014.3
20260506050506 3 360 0.0 3.2 0.00 0.00 0.00 61 1014.1
20260506045035 3 360 0.0 3.2 0.00 0.00 0.00 59 1014.0
20260506044506 3 360 0.0 8.0 0.00 0.00 0.00 60 1014.0
20260506044018 4 360 0.0 8.0 0.00 0.00 0.00 60 1014.1
20260506043539 4 360 0.0 4.8 0.00 0.00 0.00 60 1014.0
20260506043004 4 360 0.0 4.8 0.00 0.00 0.00 61 1014.0
20260506042538 4 360 0.0 3.2 0.00 0.00 0.00 60 1014.0
20260506042034 4 360 0.0 8.0 0.00 0.00 0.00 60 1014.0
20260506041509 4 360 0.0 8.0 0.00 0.00 0.00 59 1014.0
20260506041058 5 360 0.0 4.8 0.00 0.00 0.00 60 1013.9
20260506040534 5 360 0.0 8.0 0.00 0.00 0.00 59 1013.9
20260506040014 5 360 0.0 6.4 0.00 0.00 0.00 59 1013.9
20260506035536 5 360 1.6 6.4 0.00 0.00 0.00 60 1013.9
20260506035102 5 360 1.6 6.4 0.00 0.00 0.00 60 1013.9
20260506034539 5 360 0.0 9.7 0.00 0.00 0.00 60 1013.9
20260506034006 5 360 1.6 9.7 0.00 0.00 0.00 60 1013.7
20260506033550 5 360 0.0 3.2 0.00 0.00 0.00 60 1013.7
20260506033008 5 360 0.0 6.4 0.00 0.00 0.00 60 1013.7
20260506032536 5 360 0.0 6.4 0.00 0.00 0.00 59 1013.6
20260506032109 5 360 0.0 4.8 0.00 0.00 0.00 59 1013.6
20260506031549 5 360 0.0 3.2 0.00 0.00 0.00 59 1013.6
20260506031038 5 360 0.0 3.2 0.00 0.00 0.00 58 1013.6
20260506030506 6 360 0.0 6.4 0.00 0.00 0.00 57 1013.5
20260506030036 6 360 0.0 6.4 0.00 0.00 0.00 57 1013.6
20260506025513 6 360 0.0 6.4 0.00 0.00 0.00 56 1013.5
20260506025058 6 360 0.0 4.8 0.00 0.00 0.00 56 1013.4
20260506024537 6 360 0.0 9.7 0.00 0.00 0.00 55 1013.3
20260506024024 6 360 1.6 9.7 0.00 0.00 0.00 55 1013.2
20260506023501 6 360 1.6 8.0 0.00 0.00 0.00 55 1013.1
20260506023031 6 360 1.6 6.4 0.00 0.00 0.00 54 1012.9
20260506022506 6 360 1.6 6.4 0.00 0.00 0.00 53 1012.9
20260506022030 6 360 1.6 6.4 0.00 0.00 0.00 53 1012.9
20260506021517 6 360 1.6 4.8 0.00 0.00 0.00 53 1012.8
20260506021101 6 360 1.6 4.8 0.00 0.00 0.00 53 1012.8
20260506020538 6 360 0.0 4.8 0.00 0.00 0.00 53 1012.7
20260506020016 6 360 0.0 4.8 0.00 0.00 0.00 53 1012.5
20260506015502 6 360 1.6 4.8 0.00 0.00 0.00 52 1012.4
20260506015035 6 360 0.0 4.8 0.00 0.00 0.00 51 1012.3
20260506014557 7 360 0.0 4.8 0.00 0.00 0.00 52 1012.3
20260506014031 7 360 1.6 4.8 0.00 0.00 0.00 52 1012.3
20260506013518 7 360 0.0 6.4 0.00 0.00 0.00 50 1012.2
20260506013008 7 360 1.6 9.7 0.00 0.00 0.00 49 1012.1
20260506012549 7 360 1.6 14.5 0.00 0.00 0.00 49 1012.1
20260506012031 7 360 4.8 14.5 0.00 0.00 0.00 49 1012.0
20260506011526 7 360 3.2 14.5 0.00 0.00 0.00 49 1011.9
20260506011042 7 360 3.2 14.5 0.00 0.00 0.00 48 1011.8
20260506010505 8 360 1.6 9.7 0.00 0.00 0.00 49 1011.8
20260506010103 8 360 3.2 12.9 0.00 0.00 0.00 48 1011.7
20260506005516 8 360 0.0 9.7 0.00 0.00 0.00 48 1011.7
20260506005052 8 360 3.2 9.7 0.00 0.00 0.00 48 1011.7
20260506004526 8 360 1.6 14.5 0.00 0.00 0.00 48 1011.7
20260506004101 8 360 3.2 14.5 0.00 0.00 0.00 49 1011.7
20260506004001 8 360 3.2 14.5 0.00 0.00 0.00 49 1011.7
20260506003534 8 360 3.2 9.7 0.00 0.00 0.00 49 1011.6
20260506003105 8 360 3.2 6.4 0.00 0.00 0.00 49 1011.6
20260506002537 8 360 1.6 12.9 0.00 0.00 0.00 48 1011.5
20260506002010 8 360 3.2 12.9 0.00 0.00 0.00 48 1011.4
20260506001502 8 360 3.2 17.7 0.00 0.00 0.00 47 1011.3
20260506001049 8 360 1.6 17.7 0.00 0.00 0.00 47 1011.3
20260506000609 8 360 4.8 16.1 0.00 0.00 0.00 47 1011.2
20260506000031 8 360 3.2 8.0 0.00 0.00 0.00 47 1011.3
20260505235554 8 360 3.2 12.9 0.00 0.00 0.00 46 1011.3
20260505235014 9 360 3.2 12.9 0.00 0.00 0.00 45 1011.2
20260505234601 9 321 4.8 16.1 0.00 0.00 0.00 45 1011.1
20260505234004 9 311 4.8 16.1 0.00 0.00 0.00 44 1011.1
20260505233525 9 313 3.2 8.0 0.00 0.00 0.00 45 1011.0
20260505233106 9 292 3.2 14.5 0.00 0.00 0.00 47 1011.0
20260505232542 9 311 6.4 14.5 0.00 0.00 0.00 47 1011.0
20260505232059 9 350 6.4 14.5 0.00 0.00 0.00 46 1011.1
20260505231516 9 297 6.4 14.5 0.00 0.00 0.00 45 1011.1
20260505231052 9 332 3.2 16.1 0.00 0.00 0.00 45 1011.2
20260505230502 9 298 3.2 12.9 0.00 0.00 0.00 46 1011.2
20260505230038 9 327 3.2 9.7 0.00 0.00 0.00 46 1011.2
20260505225543 10 270 1.6 12.9 0.00 0.00 0.00 47 1011.2
20260505225103 10 284 3.2 12.9 0.00 0.00 0.00 45 1011.2
20260505224545 10 328 4.8 14.5 0.00 0.00 0.00 45 1011.1
20260505224059 10 254 1.6 14.5 0.00 0.00 0.00 49 1011.1
20260505223512 9 228 3.2 22.5 0.00 0.00 0.00 47 1011.1
20260505223051 9 331 6.4 22.5 0.00 0.00 0.00 46 1011.0
20260505222518 9 322 1.6 16.1 0.00 0.00 0.00 47 1011.0
20260505222049 9 286 3.2 17.7 0.00 0.00 0.00 47 1010.9
20260505221550 9 22 8.0 17.7 0.00 0.00 0.00 45 1011.0
20260505221102 10 92 4.8 16.1 0.00 0.00 0.00 45 1011.0
20260505220512 10 292 3.2 17.7 0.00 0.00 0.00 46 1010.9
20260505220035 10 331 4.8 19.3 0.00 0.00 0.00 45 1010.9
20260505215534 10 317 6.4 19.3 0.00 0.00 0.00 46 1011.0
20260505215052 10 54 4.8 14.5 0.00 0.00 0.00 45 1011.0
20260505214515 10 334 4.8 19.3 0.00 0.00 0.00 43 1011.1
20260505214045 10 360 4.8 19.3 0.00 0.00 0.00 46 1011.1
20260505213605 10 337 3.2 14.5 0.00 0.00 0.00 45 1011.2
20260505213030 10 301 3.2 14.5 0.00 0.00 0.00 44 1011.2
20260505212559 10 275 4.8 16.1 0.00 0.00 0.00 46 1011.1
20260505212010 10 319 3.2 16.1 0.00 0.00 0.00 45 1011.1
20260505211609 10 273 3.2 14.5 0.00 0.00 0.00 46 1011.1
20260505211003 10 310 1.6 12.9 0.00 0.00 0.00 47 1011.2
20260505210523 9 275 3.2 16.1 0.00 0.00 0.00 47 1011.2
20260505210045 9 351 3.2 16.1 0.00 0.00 0.00 45 1011.2
20260505205521 9 327 4.8 16.1 0.00 0.00 0.00 45 1011.3
20260505205059 9 243 3.2 12.9 0.00 0.00 0.00 47 1011.2
20260505204537 9 299 1.6 12.9 0.00 0.00 0.00 47 1011.2
20260505204052 9 321 1.6 12.9 0.00 0.00 0.00 45 1011.2
20260505203502 9 329 6.4 16.1 0.00 0.00 0.00 45 1011.3
20260505203047 9 349 3.2 16.1 0.00 0.00 0.00 47 1011.3
20260505202607 9 308 4.8 16.1 0.00 0.00 0.00 46 1011.3
20260505202017 8 331 4.8 16.1 0.00 0.00 0.00 46 1011.4
20260505201542 9 336 4.8 14.5 0.00 0.00 0.00 46 1011.3
20260505201035 9 317 1.6 17.7 0.00 0.00 0.00 46 1011.4
20260505200555 9 333 6.4 17.7 0.00 0.00 0.00 47 1011.4
20260505200033 9 329 4.8 12.9 0.00 0.00 0.00 47 1011.4
20260505195548 10 302 4.8 12.9 0.00 0.00 0.00 47 1011.4
20260505195004 10 313 3.2 14.5 0.00 0.00 0.00 46 1011.4
20260505194543 10 111 1.6 14.5 0.00 0.00 0.00 51 1011.4
20260505194021 9 319 3.2 12.9 0.00 0.00 0.00 50 1011.4
20260505193601 8 24 6.4 14.5 0.00 0.00 0.00 48 1011.4
20260505193011 8 323 4.8 14.5 0.00 0.00 0.00 48 1011.4
20260505192534 9 331 4.8 14.5 0.00 0.00 0.00 47 1011.4
20260505192005 9 313 4.8 22.5 0.00 0.00 0.00 48 1011.4
20260505191532 9 324 6.4 22.5 0.00 0.00 0.00 46 1011.4
20260505191048 9 315 3.2 16.1 0.00 0.00 0.00 46 1011.3
20260505190518 9 343 8.0 17.7 0.00 0.00 0.00 46 1011.3
20260505190039 10 326 9.7 22.5 0.00 0.00 0.00 46 1011.4
20260505185558 9 355 8.0 22.5 0.00 0.00 0.00 47 1011.4
20260505185024 8 321 4.8 12.9 0.00 0.00 0.00 47 1011.4
20260505184555 8 325 4.8 12.9 0.00 0.00 0.00 47 1011.5
20260505184022 8 179 3.2 17.7 0.00 0.00 0.00 46 1011.4
20260505183540 9 317 4.8 17.7 0.00 0.00 0.00 45 1011.4
20260505183101 9 301 6.4 17.7 0.00 0.00 0.00 45 1011.4
20260505182539 9 321 8.0 16.1 0.00 0.00 0.00 46 1011.4
20260505182057 9 340 6.4 14.5 0.00 0.00 0.00 44 1011.4
20260505181509 10 24 3.2 14.5 0.00 0.00 0.00 46 1011.4
20260505181055 9 248 4.8 16.1 0.00 0.00 0.00 47 1011.4
20260505180506 9 340 4.8 14.5 0.00 0.00 0.00 46 1011.2
20260505180027 9 329 4.8 14.5 0.00 0.00 0.00 45 1011.3
20260505175502 10 327 4.8 17.7 0.00 0.00 0.00 44 1011.3
20260505175021 10 298 0.0 17.7 0.00 0.00 0.00 45 1011.4
20260505174600 10 299 4.8 12.9 0.00 0.00 0.00 45 1011.4
20260505174502 10 66 3.2 14.5 0.00 0.00 0.00 49 1011.3
20260505174019 8 130 4.8 16.1 0.00 0.00 0.00 46 1011.3
20260505173602 8 326 6.4 16.1 0.00 0.00 0.00 44 1011.3
20260505173019 8 317 4.8 16.1 0.00 0.00 0.00 45 1011.5
20260505172538 8 256 3.2 12.9 0.00 0.00 0.00 47 1011.4
20260505172012 8 319 3.2 12.9 0.00 0.00 0.00 46 1011.5
20260505171543 8 331 3.2 17.7 0.00 0.00 0.00 45 1011.5
20260505171105 8 334 4.8 17.7 0.00 0.00 0.00 45 1011.5
20260505170526 8 301 3.2 8.0 0.00 0.00 0.00 47 1011.5
20260505170106 8 225 1.6 6.4 0.00 0.00 0.00 47 1011.5
20260505165535 8 120 1.6 6.4 0.00 0.00 0.00 48 1011.5
20260505165008 8 266 1.6 14.5 0.00 0.00 0.00 46 1011.5
20260505164537 8 296 3.2 16.1 0.00 0.00 0.00 45 1011.5
20260505164030 8 329 4.8 16.1 0.00 0.00 0.00 46 1011.5
20260505163513 8 115 3.2 16.1 0.00 0.00 0.00 47 1011.4
20260505163033 8 333 4.8 14.5 0.00 0.00 0.00 45 1011.5
20260505162553 8 336 0.0 11.3 0.00 0.00 0.00 50 1011.5
20260505162031 8 133 3.2 14.5 0.00 0.00 0.00 45 1011.5
20260505161513 8 311 1.6 9.7 0.00 0.00 0.00 45 1011.6
20260505161037 8 308 1.6 8.0 0.00 0.00 0.00 44 1011.5
20260505160531 8 219 1.6 9.7 0.00 0.00 0.00 45 1011.5
20260505153106 8 325 1.6 9.7 0.00 0.00 0.00 49 1011.3
20260505152521 8 128 3.2 12.9 0.00 0.00 0.00 48 1011.4
20260505152001 8 148 3.2 12.9 0.00 0.00 0.00 48 1011.4
20260505151527 8 298 1.6 12.9 0.00 0.00 0.00 50 1011.3
20260505151010 7 109 3.2 16.1 0.00 0.00 0.00 51 1011.3
20260505150549 7 344 3.2 16.1 0.00 0.00 0.00 52 1011.2
20260505140507 7 284 1.6 6.4 0.00 0.00 0.00 51 1010.8
20260505125007 5 225 1.6 11.3 0.00 0.00 0.00 55 1010.3
20260505124556 5 254 1.6 11.3 0.00 0.00 0.00 54 1010.3
20260505124035 5 142 1.6 9.7 0.00 0.00 0.00 56 1010.2
20260505123520 5 142 1.6 9.7 0.00 0.00 0.00 56 1010.0
20260505123004 5 360 0.0 6.4 0.00 0.00 0.00 59 1009.9
20260505122526 5 194 0.0 6.4 0.00 0.00 0.00 59 1009.8
20260505122103 4 360 1.6 4.8 0.00 0.00 0.00 61 1009.8
20260505121544 4 360 1.6 4.8 0.00 0.00 0.00 62 1009.7
20260505121012 3 360 0.0 6.4 0.00 0.00 0.00 65 1009.6
20260505120532 3 360 1.6 6.4 0.00 0.00 0.00 67 1009.4
20260505120110 3 360 0.0 4.8 0.00 0.00 0.00 68 1009.4
20260505115525 3 213 0.0 4.8 0.00 0.00 0.00 68 1009.4
20260505115107 3 360 0.0 3.2 0.00 0.00 0.00 69 1009.3
20260505114516 2 360 0.0 3.2 0.00 0.00 0.00 70 1009.2
20260505114058 2 360 0.0 3.2 0.00 0.00 0.00 71 1009.1
20260505113529 2 360 0.0 3.2 0.00 0.00 0.00 71 1009.0
20260505113004 2 360 0.0 3.2 0.00 0.00 0.00 72 1008.9
20260505112548 2 360 0.0 3.2 0.00 0.00 0.00 73 1008.8
20260505112110 2 360 0.0 3.2 0.00 0.00 0.00 73 1008.7
20260505111524 2 360 0.0 3.2 0.00 0.00 0.00 74 1008.6
20260505111100 2 232 0.0 3.2 0.00 0.00 0.00 74 1008.6